Location: Nasgenstadt
(48.2786°N, 9.7553°E)
Time: 22:57:10
(UTC+01:00)

ISS - Pass Details

Date: 16 November 2017
Orbit: 402 x 407 km, 51.6° (Epoch: 23 November)

Event Time Altitude Azimuth Distance (km) Brightness Sun altitude
Exits shadow 05:38:01 33° 203° (SSW) 705 -2.8 -18.4°
Drops below altitude 10° 05:40:43 10° 149° (SSE) 1,449 -0.5 -18.0°
Sets 05:42:54 0° 139° (SE) 2,305 0.8 -17.6°
